Location: Luxembourg
(49.6117°N, 6.1300°E)
Time: 21:46:49
(UTC+01:00)

N. Korean satellite - Visible Passes

Search period start: 20 January 2021 00:00
Search period end: 30 January 2021 00:00
Orbit: 453 x 502 km, 97.2° (Epoch: 19 January)

Date Brightness Start Highest point End Pass type
(mag) Time Alt. Az. Time Alt. Az. Time Alt. Az.
20 Jan 10.0 04:54:02 10° E 04:54:07 10° E 04:54:11 10° E visible
20 Jan 6.3 06:24:24 10° N 06:27:54 68° WNW 06:31:21 10° SSW visible
21 Jan 7.1 05:57:51 10° NNE 06:01:20 56° E 06:04:43 10° S visible
21 Jan 8.3 07:32:27 10° NNW 07:34:13 13° WNW 07:35:57 10° W visible
21 Jan 9.7 18:11:03 10° SW 18:13:35 18° W 18:16:07 10° NW visible
22 Jan 8.6 05:31:36 10° NE 05:34:38 27° E 05:37:37 10° SSE visible
22 Jan 7.6 07:05:01 10° NNW 07:07:53 24° WNW 07:10:42 10° WSW visible
23 Jan 9.6 05:05:55 10° NE 05:07:51 14° E 05:09:45 10° SE visible
23 Jan 6.7 06:38:04 10° N 06:41:26 45° WNW 06:44:45 10° SW visible
24 Jan 6.4 06:11:24 10° NNE 06:14:54 84° ESE 06:18:20 10° SSW visible
24 Jan 10.0 18:25:40 10° WSW 18:27:18 13° W 18:28:56 10° WNW visible
25 Jan 7.9 05:44:58 10° NNE 05:48:15 38° E 05:51:29 10° SSE visible
25 Jan 8.0 07:18:57 10° NNW 07:21:19 17° WNW 07:23:39 10° WSW visible
25 Jan 9.4 17:57:31 10° SSW 18:00:29 23° W 18:03:27 10° NW visible
26 Jan 9.2 05:18:55 10° NE 05:21:31 20° E 05:24:05 10° SE visible
26 Jan 7.1 06:51:48 10° N 06:54:56 32° WNW 06:58:00 10° SW visible
27 Jan 6.3 06:24:58 10° N 06:28:26 66° WNW 06:31:49 10° SSW visible
28 Jan 7.0 05:58:24 10° NNE 06:01:50 57° E 06:05:12 10° S visible
28 Jan 8.3 07:33:06 10° NNW 07:34:43 13° WNW 07:36:19 10° W visible
28 Jan 9.7 18:11:44 10° SW 18:14:09 17° W 18:16:33 10° NW visible
29 Jan 8.6 05:32:07 10° NE 05:35:08 27° E 05:38:05 10° SSE visible
29 Jan 7.6 07:05:35 10° NNW 07:08:21 23° WNW 07:11:06 10° WSW visible
